Tracking 19562 objects as of 24-Mar-2019
HD Live streaming from Space Station
objects crossing your sky now

COSMOS 1038

Track COSMOS 1038 now!
10-day predictions
COSMOS 1038 is classified as:


NORAD ID: 11047
Int'l Code: 1978-091E
Perigee: 1,484.5 km
Apogee: 1,493.2 km
Inclination: 74.0 °
Period: 115.6 minutes
Semi major axis: 7859 km
RCS: 0.7055 m2 (medium)
Launch date: October 4, 1978
Source: Commonwealth of Independent States (former USSR) (CIS)
Launch site: PLESETSK MISSILE AND SPACE COMPLEX (PKMTR)
aabbcc
Your satellite tracking list
Your tracking list is empty




NASA's NSSDC Master Catalog

Two Line Element Set (TLE):
1 11047U 78091E   19081.95669604 -.00000029 +00000-0 -94637-4 0  9998
2 11047 074.0373 038.2477 0005535 125.5844 304.3515 12.45892591431664
Source of the keplerian elements: AFSPC